Location: Observatorio Las Palmas
(29.0667°N, 110.9333°W)
Time: 13:08:32
(UTC-07:00)

HST - Visible Passes

Search period start: 23 July 2014 00:00
Search period end: 02 August 2014 00:00
Orbit: 548 x 552 km, 28.5° (Epoch: 22 July)

Date Brightness Start Highest point End Pass type
(mag) Time Alt. Az. Time Alt. Az. Time Alt. Az.
23 Jul 0.8 19:43:10 10° W 19:47:21 78° S 19:51:33 10° E visible
23 Jul 1.2 21:24:36 10° W 21:28:04 58° WSW 21:28:04 58° WSW visible
24 Jul 1.0 21:17:50 10° W 21:21:30 60° SW 21:21:30 60° SW visible
25 Jul 1.0 21:11:03 10° W 21:14:55 56° SSW 21:14:55 56° SSW visible
26 Jul 1.2 21:04:18 10° W 21:08:18 48° SSW 21:08:18 48° SSW visible
27 Jul 1.5 20:57:35 10° W 21:01:30 38° SSW 21:01:42 38° S visible
28 Jul 1.8 20:50:55 10° W 20:54:37 31° SSW 20:55:06 30° S visible
29 Jul 2.2 20:44:20 10° WSW 20:47:44 24° SSW 20:48:32 23° S visible
30 Jul 2.6 20:37:55 10° WSW 20:40:50 18° SSW 20:42:01 17° S visible
31 Jul 3.0 20:31:45 10° WSW 20:33:55 14° SSW 20:35:31 12° S visible
